Home > Weather > Chicago > Past weeks

Flag for USA Past Weather in Chicago, Illinois, USA — Yesterday and Last 2 Weeks

Now
77 °F

Broken clouds.


Feels Like: 79 °F
Forecast: 64 / 74 °F
Wind: 9 mph from Southwest

Location: Chicago Midway Airport

Current Time: May 25, 2016 at 10:10:29 AM

Latest Report: May 25, 2016 at 8:53 AM


Visibility: 10 mi

Pressure: 29.98 "Hg

Humidity: 62%

Dew Point: 63 °F

Location of ChicagoLocation

Past Weather in Chicago — Graph

°F

Chicago Temperature Yesterday

Maximum temperature yesterday: 89 °F (at 4:53 PM)
Minimum temperature yesterday: 65 °F (at 5:53 AM)
Average temperature yesterday: 77 °F

High & Low Weather Summary for the Past Weeks

 TemperatureHumidityPressure
High89 °F (May 24, 4:53 PM)97% (May 11, 1:53 AM)30.26 "Hg (May 11, 1:53 AM)
Low38 °F (May 15, 5:53 AM)15% (May 23, 4:53 PM)29.79 "Hg (May 13, 9:53 PM)
Average61 °F53%30.05 "Hg
* Reported May 10 7:53 AM — May 25 7:53 AM, Chicago, Weather by CustomWeather, © 2016

Note: Actual official high and low records may vary slightly from our data, if they occured in-between our weather recording intervals... More about our weather records

Advertising

Chicago Weather History for the Previous 24 Hours

Scroll right to see more
 ConditionsComfort  
Time TempWeatherWind HumidityBarometerVisibility
7:53 AM
Wed, May 25
73 °FScattered clouds.9 mph66%29.99 "Hg10 mi
6:53 AM71 °FPartly sunny.8 mph68%29.98 "Hg10 mi
5:53 AM70 °FPassing clouds.5 mph68%29.94 "Hg10 mi
4:53 AM71 °FPassing clouds.6 mph66%29.94 "Hg10 mi
3:53 AM71 °FPassing clouds.7 mph66%29.96 "Hg10 mi
2:53 AM73 °FOvercast.10 mph62%29.96 "Hg10 mi
1:53 AM74 °FOvercast.9 mph60%29.96 "Hg10 mi
12:53 AM75 °FHigh level clouds.10 mph55%29.94 "Hg10 mi
11:53 PM
Tue, May 24
77 °FOvercast.8 mph48%29.94 "Hg10 mi
10:53 PM78 °FPassing clouds.9 mph45%29.94 "Hg10 mi
9:53 PM80 °FPartly cloudy.12 mph41%29.94 "Hg10 mi
8:53 PM82 °FBroken clouds.8 mph34%29.91 "Hg10 mi
7:53 PM84 °FBroken clouds.14 mph32%29.90 "Hg10 mi
6:53 PM85 °FBroken clouds.10 mph30%29.90 "Hg10 mi
5:53 PM88 °FScattered clouds.13 mph25%29.89 "Hg10 mi
4:53 PM89 °FScattered clouds.17 mph22%29.90 "Hg10 mi
3:53 PM88 °FPartly sunny.17 mph23%29.90 "Hg10 mi
2:53 PM88 °FPartly sunny.14 mph25%29.92 "Hg10 mi
1:53 PM86 °FPartly sunny.12 mph28%29.93 "Hg10 mi
12:53 PM85 °FScattered clouds.15 mph29%29.95 "Hg10 mi
11:53 AM83 °FPartly sunny.16 mph34%29.96 "Hg10 mi
10:53 AM81 °FPartly sunny.15 mph37%29.97 "Hg10 mi
Weather by CustomWeather, © 2016

See weather overviewHow to use our weather pages